Year,Month,Day,Hour,Minute,Value (Times are PST for temperature in C)
2012,12,07,00,00,3.80
2012,12,07,00,01,3.80
2012,12,07,00,02,3.80
2012,12,07,00,03,3.80
2012,12,07,00,04,3.80
2012,12,07,00,05,3.80
2012,12,07,00,06,3.90
2012,12,07,00,07,3.90
2012,12,07,00,08,3.90
2012,12,07,00,09,3.90
2012,12,07,00,10,3.90
2012,12,07,00,11,3.90
2012,12,07,00,12,3.90
2012,12,07,00,13,3.90
2012,12,07,00,14,3.90
2012,12,07,00,15,3.90
2012,12,07,00,16,3.90
2012,12,07,00,17,3.90
2012,12,07,00,18,3.90
2012,12,07,00,19,3.90
2012,12,07,00,20,3.90
2012,12,07,00,21,3.90
2012,12,07,00,22,3.90
2012,12,07,00,23,3.90
2012,12,07,00,24,3.90
2012,12,07,00,25,3.90
2012,12,07,00,26,3.90
2012,12,07,00,27,3.90
2012,12,07,00,28,3.90
2012,12,07,00,29,3.90
2012,12,07,00,30,3.90
2012,12,07,00,31,3.90
2012,12,07,00,32,3.90
2012,12,07,00,33,4.00
2012,12,07,00,34,4.00
2012,12,07,00,35,4.00
2012,12,07,00,36,4.00
2012,12,07,00,37,4.00
2012,12,07,00,38,4.00
2012,12,07,00,39,4.00
2012,12,07,00,40,4.00
2012,12,07,00,41,4.00
2012,12,07,00,42,4.00
2012,12,07,00,43,4.00
2012,12,07,00,44,4.00
2012,12,07,00,45,4.00
2012,12,07,00,46,4.10
2012,12,07,00,47,4.10
2012,12,07,00,48,4.10
2012,12,07,00,49,4.10
2012,12,07,00,50,4.10
2012,12,07,00,51,4.10
2012,12,07,00,52,4.10
2012,12,07,00,53,4.10
2012,12,07,00,54,4.20
2012,12,07,00,55,4.20
2012,12,07,00,56,4.20
2012,12,07,00,57,4.20
2012,12,07,00,58,4.20
2012,12,07,00,59,4.20
2012,12,07,01,00,4.20
2012,12,07,01,01,4.20
2012,12,07,01,02,4.20
2012,12,07,01,03,4.20
2012,12,07,01,04,4.20
2012,12,07,01,05,4.30
2012,12,07,01,06,4.30
2012,12,07,01,07,4.40
2012,12,07,01,08,4.60
2012,12,07,01,09,4.80
2012,12,07,01,10,4.90
2012,12,07,01,11,4.90
2012,12,07,01,12,5.00
2012,12,07,01,13,5.00
2012,12,07,01,14,5.10
2012,12,07,01,15,5.10
2012,12,07,01,16,5.20
2012,12,07,01,17,5.30
2012,12,07,01,18,5.30
2012,12,07,01,19,5.40
2012,12,07,01,20,5.50
2012,12,07,01,21,5.50
2012,12,07,01,22,5.60
2012,12,07,01,23,5.60
2012,12,07,01,24,5.70
2012,12,07,01,25,5.70
2012,12,07,01,26,5.70
2012,12,07,01,27,5.70
2012,12,07,01,28,5.70
2012,12,07,01,29,5.80
2012,12,07,01,30,5.80
2012,12,07,01,31,5.80
2012,12,07,01,32,5.80
2012,12,07,01,33,5.80
2012,12,07,01,34,5.80
2012,12,07,01,35,5.80
2012,12,07,01,36,5.80
2012,12,07,01,37,5.80
2012,12,07,01,38,5.80
2012,12,07,01,39,5.80
2012,12,07,01,40,5.70
2012,12,07,01,41,5.70
2012,12,07,01,42,5.70
2012,12,07,01,43,5.80
2012,12,07,01,44,5.80
2012,12,07,01,45,5.80
2012,12,07,01,46,5.80
2012,12,07,01,47,5.80
2012,12,07,01,48,5.80
2012,12,07,01,49,5.90
2012,12,07,01,50,5.90
2012,12,07,01,51,5.90
2012,12,07,01,52,6.00
2012,12,07,01,53,6.00
2012,12,07,01,54,6.00
2012,12,07,01,55,6.00
2012,12,07,01,56,6.00
2012,12,07,01,57,6.10
2012,12,07,01,58,6.10
2012,12,07,01,59,6.10
2012,12,07,02,00,6.10
2012,12,07,02,01,6.10
2012,12,07,02,02,6.10
2012,12,07,02,03,6.10
2012,12,07,02,04,6.10
2012,12,07,02,05,6.20
2012,12,07,02,06,6.20
2012,12,07,02,07,6.20
2012,12,07,02,08,6.20
2012,12,07,02,09,6.20
2012,12,07,02,10,6.30
2012,12,07,02,11,6.30
2012,12,07,02,12,6.30
2012,12,07,02,13,6.30
2012,12,07,02,14,6.30
2012,12,07,02,15,6.30
2012,12,07,02,16,6.30
2012,12,07,02,17,6.30
2012,12,07,02,18,6.30
2012,12,07,02,19,6.30
2012,12,07,02,20,6.30
2012,12,07,02,21,6.30
2012,12,07,02,22,6.30
2012,12,07,02,23,6.30
2012,12,07,02,24,6.30
2012,12,07,02,25,6.30
2012,12,07,02,26,6.30
2012,12,07,02,27,6.30
2012,12,07,02,28,6.40
2012,12,07,02,29,6.40
2012,12,07,02,30,6.40
2012,12,07,02,31,6.40
2012,12,07,02,32,6.40
2012,12,07,02,33,6.40
2012,12,07,02,34,6.50
2012,12,07,02,35,6.50
2012,12,07,02,36,6.50
2012,12,07,02,37,6.50
2012,12,07,02,38,6.50
2012,12,07,02,39,6.60
2012,12,07,02,40,6.60
2012,12,07,02,41,6.60
2012,12,07,02,42,6.70
2012,12,07,02,43,6.70
2012,12,07,02,44,6.70
2012,12,07,02,45,6.70
2012,12,07,02,46,6.70
2012,12,07,02,47,6.70
2012,12,07,02,48,6.70
2012,12,07,02,49,6.70
2012,12,07,02,50,6.70
2012,12,07,02,51,6.70
2012,12,07,02,52,6.80
2012,12,07,02,53,6.80
2012,12,07,02,54,6.80
2012,12,07,02,55,6.80
2012,12,07,02,56,6.80
2012,12,07,02,57,6.80
2012,12,07,02,58,6.80
2012,12,07,02,59,6.80
2012,12,07,03,00,6.90
2012,12,07,03,01,6.90
2012,12,07,03,02,6.90
2012,12,07,03,03,6.90
2012,12,07,03,04,6.90
2012,12,07,03,05,6.90
2012,12,07,03,06,7.00
2012,12,07,03,07,7.00
2012,12,07,03,08,7.00
2012,12,07,03,09,7.00
2012,12,07,03,10,7.10
2012,12,07,03,11,7.10
2012,12,07,03,12,7.10
2012,12,07,03,13,7.10
2012,12,07,03,14,7.10
2012,12,07,03,15,7.10
2012,12,07,03,16,7.10
2012,12,07,03,17,7.00
2012,12,07,03,18,7.00
2012,12,07,03,19,7.00
2012,12,07,03,20,7.00
2012,12,07,03,21,7.10
2012,12,07,03,22,7.10
2012,12,07,03,23,7.10
2012,12,07,03,24,7.10
2012,12,07,03,25,7.10
2012,12,07,03,26,7.10
2012,12,07,03,27,7.10
2012,12,07,03,28,7.10
2012,12,07,03,29,7.20
2012,12,07,03,30,7.20
2012,12,07,03,31,7.20
2012,12,07,03,32,7.20
2012,12,07,03,33,7.20
2012,12,07,03,34,7.20
2012,12,07,03,35,7.20
2012,12,07,03,36,7.20
2012,12,07,03,37,7.20
2012,12,07,03,38,7.20
2012,12,07,03,39,7.20
2012,12,07,03,40,7.20
2012,12,07,03,41,7.20
2012,12,07,03,42,7.20
2012,12,07,03,43,7.20
2012,12,07,03,44,7.10
2012,12,07,03,45,7.10
2012,12,07,03,46,7.10
2012,12,07,03,47,7.10
2012,12,07,03,48,7.10
2012,12,07,03,49,7.00
2012,12,07,03,50,7.00
2012,12,07,03,51,6.90
2012,12,07,03,52,6.90
2012,12,07,03,53,6.80
2012,12,07,03,54,6.80
2012,12,07,03,55,6.80
2012,12,07,03,56,6.70
2012,12,07,03,57,6.70
2012,12,07,03,58,6.60
2012,12,07,03,59,6.60
2012,12,07,04,00,6.60
2012,12,07,04,01,6.60
2012,12,07,04,02,6.50
2012,12,07,04,03,6.50
2012,12,07,04,04,6.50
2012,12,07,04,05,6.40
2012,12,07,04,06,6.40
2012,12,07,04,07,6.30
2012,12,07,04,08,6.30
2012,12,07,04,09,6.20
2012,12,07,04,10,6.20
2012,12,07,04,11,6.20
2012,12,07,04,12,6.10
2012,12,07,04,13,6.10
2012,12,07,04,14,6.10
2012,12,07,04,15,6.10
2012,12,07,04,16,6.10
2012,12,07,04,17,6.10
2012,12,07,04,18,6.10
2012,12,07,04,19,6.10
2012,12,07,04,20,6.10
2012,12,07,04,21,6.10
2012,12,07,04,22,6.10
2012,12,07,04,23,6.10
2012,12,07,04,24,6.10
2012,12,07,04,25,6.10
2012,12,07,04,26,6.10
2012,12,07,04,27,6.10
2012,12,07,04,28,6.10
2012,12,07,04,29,6.10
2012,12,07,04,30,6.10
2012,12,07,04,31,6.10
2012,12,07,04,32,6.10
2012,12,07,04,33,6.10
2012,12,07,04,34,6.10
2012,12,07,04,35,6.10
2012,12,07,04,36,6.10
2012,12,07,04,37,6.10
2012,12,07,04,38,6.10
2012,12,07,04,39,6.10
2012,12,07,04,40,6.10
2012,12,07,04,41,6.10
2012,12,07,04,42,6.10
2012,12,07,04,43,6.10
2012,12,07,04,44,6.10
2012,12,07,04,45,6.10
2012,12,07,04,46,6.10
2012,12,07,04,47,6.10
2012,12,07,04,48,6.10
2012,12,07,04,49,6.10
2012,12,07,04,50,6.10
2012,12,07,04,51,6.10
2012,12,07,04,52,6.10
2012,12,07,04,53,6.10
2012,12,07,04,54,6.10
2012,12,07,04,55,6.10
2012,12,07,04,56,6.10
2012,12,07,04,57,6.10
2012,12,07,04,58,6.10
2012,12,07,04,59,6.10
2012,12,07,05,00,6.10
2012,12,07,05,01,6.10
2012,12,07,05,02,6.10
2012,12,07,05,03,6.10
2012,12,07,05,04,6.10
2012,12,07,05,05,6.10
2012,12,07,05,06,6.00
2012,12,07,05,07,6.00
2012,12,07,05,08,6.00
2012,12,07,05,09,5.90
2012,12,07,05,10,5.90
2012,12,07,05,11,5.80
2012,12,07,05,12,5.80
2012,12,07,05,13,5.80
2012,12,07,05,14,5.70
2012,12,07,05,15,5.60
2012,12,07,05,16,5.60
2012,12,07,05,17,5.60
2012,12,07,05,18,5.60
2012,12,07,05,19,5.60
2012,12,07,05,20,5.60
2012,12,07,05,21,5.60
2012,12,07,05,22,5.50
2012,12,07,05,23,5.30
2012,12,07,05,24,5.30
2012,12,07,05,25,5.30
2012,12,07,05,26,5.30
2012,12,07,05,27,5.30
2012,12,07,05,28,5.30
2012,12,07,05,29,5.30
2012,12,07,05,30,5.20
2012,12,07,05,31,5.20
2012,12,07,05,32,5.20
2012,12,07,05,33,5.20
2012,12,07,05,34,5.20
2012,12,07,05,35,5.20
2012,12,07,05,36,5.20
2012,12,07,05,37,5.20
2012,12,07,05,38,5.20
2012,12,07,05,39,5.20
2012,12,07,05,40,5.20
2012,12,07,05,41,5.20
2012,12,07,05,42,5.20
2012,12,07,05,43,5.20
2012,12,07,05,44,5.20
2012,12,07,05,45,5.20
2012,12,07,05,46,5.20
2012,12,07,05,47,5.20
2012,12,07,05,48,5.20
2012,12,07,05,49,5.20
2012,12,07,05,50,5.20
2012,12,07,05,51,5.20
2012,12,07,05,52,5.20
2012,12,07,05,53,5.20
2012,12,07,05,54,5.20
2012,12,07,05,55,5.20
2012,12,07,05,56,5.20
2012,12,07,05,57,5.20
2012,12,07,05,58,5.20
2012,12,07,05,59,5.20
2012,12,07,06,00,5.20
2012,12,07,06,01,5.20
2012,12,07,06,02,5.20
2012,12,07,06,03,5.20
2012,12,07,06,04,5.20
2012,12,07,06,05,5.20
2012,12,07,06,06,5.20
2012,12,07,06,07,5.20
2012,12,07,06,08,5.20
2012,12,07,06,09,5.20
2012,12,07,06,10,5.20
2012,12,07,06,11,5.20
2012,12,07,06,12,5.20
2012,12,07,06,13,5.20
2012,12,07,06,14,5.20
2012,12,07,06,15,5.20
2012,12,07,06,16,5.20
2012,12,07,06,17,5.20
2012,12,07,06,18,5.20
2012,12,07,06,19,5.20
2012,12,07,06,20,5.20
2012,12,07,06,21,5.20
2012,12,07,06,22,5.20
2012,12,07,06,23,5.20
2012,12,07,06,24,5.20
2012,12,07,06,25,5.20
2012,12,07,06,26,5.20
2012,12,07,06,27,5.20
2012,12,07,06,28,5.30
2012,12,07,06,29,5.30
2012,12,07,06,30,5.30
2012,12,07,06,31,5.30
2012,12,07,06,32,5.30
2012,12,07,06,33,5.30
2012,12,07,06,34,5.30
2012,12,07,06,35,5.30
2012,12,07,06,36,5.30
2012,12,07,06,37,5.30
2012,12,07,06,38,5.30
2012,12,07,06,39,5.30
2012,12,07,06,40,5.30
2012,12,07,06,41,5.30
2012,12,07,06,42,5.40
2012,12,07,06,43,5.40
2012,12,07,06,44,5.40
2012,12,07,06,45,5.40
2012,12,07,06,46,5.40
2012,12,07,06,47,5.40
2012,12,07,06,48,5.40
2012,12,07,06,49,5.50
2012,12,07,06,50,5.50
2012,12,07,06,51,5.50
2012,12,07,06,52,5.60
2012,12,07,06,53,5.60
2012,12,07,06,54,5.60
2012,12,07,06,55,5.60
2012,12,07,06,56,5.70
2012,12,07,06,57,5.70
2012,12,07,06,58,5.70
2012,12,07,06,59,5.70
2012,12,07,07,00,5.70
2012,12,07,07,01,5.70
2012,12,07,07,02,5.80
2012,12,07,07,03,5.80
2012,12,07,07,04,5.80
2012,12,07,07,05,5.80
2012,12,07,07,06,5.80
2012,12,07,07,07,5.90
2012,12,07,07,08,5.90
2012,12,07,07,09,5.90
2012,12,07,07,10,5.90
2012,12,07,07,11,5.90
2012,12,07,07,12,5.90
2012,12,07,07,13,5.90
2012,12,07,07,14,5.90
2012,12,07,07,15,5.90
2012,12,07,07,16,6.00
2012,12,07,07,17,6.00
2012,12,07,07,18,6.00
2012,12,07,07,19,6.00
2012,12,07,07,20,6.10
2012,12,07,07,21,6.10
2012,12,07,07,22,6.10
2012,12,07,07,23,6.10
2012,12,07,07,24,6.20
2012,12,07,07,25,6.20
2012,12,07,07,26,6.20
2012,12,07,07,27,6.20
2012,12,07,07,28,6.20
2012,12,07,07,29,6.20
2012,12,07,07,30,6.20
2012,12,07,07,31,6.20
2012,12,07,07,32,6.10
2012,12,07,07,33,6.10
2012,12,07,07,34,6.10
2012,12,07,07,35,6.00
2012,12,07,07,36,6.00
2012,12,07,07,37,5.90
2012,12,07,07,38,5.80
2012,12,07,07,39,5.80
2012,12,07,07,40,5.70
2012,12,07,07,41,5.70
2012,12,07,07,42,5.60
2012,12,07,07,43,5.60
2012,12,07,07,44,5.50
2012,12,07,07,45,5.50
2012,12,07,07,46,5.50
2012,12,07,07,47,5.40
2012,12,07,07,48,5.40
2012,12,07,07,49,5.40
2012,12,07,07,50,5.30
2012,12,07,07,51,5.30
2012,12,07,07,52,5.30
2012,12,07,07,53,5.30
2012,12,07,07,54,5.20
2012,12,07,07,55,5.20
2012,12,07,07,56,5.20
2012,12,07,07,57,5.20
2012,12,07,07,58,5.20
2012,12,07,07,59,5.10
2012,12,07,08,00,5.10
2012,12,07,08,01,5.10
2012,12,07,08,02,5.10
2012,12,07,08,03,5.10
2012,12,07,08,04,5.10
2012,12,07,08,05,5.10
2012,12,07,08,06,5.00
2012,12,07,08,07,5.00
2012,12,07,08,08,5.00
2012,12,07,08,09,5.10
2012,12,07,08,10,5.10
2012,12,07,08,11,5.10
2012,12,07,08,12,5.10
2012,12,07,08,13,5.10
2012,12,07,08,14,5.10
2012,12,07,08,15,5.10
2012,12,07,08,16,5.10
2012,12,07,08,17,5.10
2012,12,07,08,18,5.10
2012,12,07,08,19,5.10
2012,12,07,08,20,5.10
2012,12,07,08,21,5.10
2012,12,07,08,22,5.10
2012,12,07,08,23,5.10
2012,12,07,08,24,5.10
2012,12,07,08,25,5.10
2012,12,07,08,26,5.10
2012,12,07,08,27,5.10
2012,12,07,08,28,5.10
2012,12,07,08,29,5.10
2012,12,07,08,30,5.10
2012,12,07,08,31,5.10
2012,12,07,08,32,5.10
2012,12,07,08,33,5.10
2012,12,07,08,34,5.10
2012,12,07,08,35,5.10
2012,12,07,08,36,5.10
2012,12,07,08,37,5.10
2012,12,07,08,38,5.10
2012,12,07,08,39,5.10
2012,12,07,08,40,5.10
2012,12,07,08,41,5.20
2012,12,07,08,42,5.20
2012,12,07,08,43,5.20
2012,12,07,08,44,5.20
2012,12,07,08,45,5.20
2012,12,07,08,46,5.20
2012,12,07,08,47,5.20
2012,12,07,08,48,5.20
2012,12,07,08,49,5.20
2012,12,07,08,50,5.20
2012,12,07,08,51,5.20
2012,12,07,08,52,5.20
2012,12,07,08,53,5.20
2012,12,07,08,54,5.20
2012,12,07,08,55,5.20
2012,12,07,08,56,5.20
2012,12,07,08,57,5.20
2012,12,07,08,58,5.20
2012,12,07,08,59,5.20
2012,12,07,09,00,5.20
2012,12,07,09,01,5.20
2012,12,07,09,02,5.20
2012,12,07,09,03,5.20
2012,12,07,09,04,5.20
2012,12,07,09,05,5.20
2012,12,07,09,06,5.20
2012,12,07,09,07,5.20
2012,12,07,09,08,5.10
2012,12,07,09,09,5.10
2012,12,07,09,10,5.10
2012,12,07,09,11,5.10
2012,12,07,09,12,5.10
2012,12,07,09,13,5.10
2012,12,07,09,14,5.10
2012,12,07,09,15,5.10
2012,12,07,09,16,5.10
2012,12,07,09,17,5.10
2012,12,07,09,18,5.10
2012,12,07,09,19,5.00
2012,12,07,09,20,5.00
2012,12,07,09,21,5.00
2012,12,07,09,22,5.00
2012,12,07,09,23,5.00
2012,12,07,09,24,4.90
2012,12,07,09,25,4.90
2012,12,07,09,26,4.90
2012,12,07,09,27,4.90
2012,12,07,09,28,4.90
2012,12,07,09,29,4.90
2012,12,07,09,30,4.90
2012,12,07,09,31,4.90
2012,12,07,09,32,4.90
2012,12,07,09,33,4.90
2012,12,07,09,34,4.80
2012,12,07,09,35,4.80
2012,12,07,09,36,4.80
2012,12,07,09,37,4.80
2012,12,07,09,38,4.80
2012,12,07,09,39,4.80
2012,12,07,09,40,4.80
2012,12,07,09,41,4.80
2012,12,07,09,42,4.80
2012,12,07,09,43,4.80
2012,12,07,09,44,4.80
2012,12,07,09,45,4.80
2012,12,07,09,46,4.80
2012,12,07,09,47,4.80
2012,12,07,09,48,4.80
2012,12,07,09,49,4.80
2012,12,07,09,50,4.80
2012,12,07,09,51,4.80
2012,12,07,09,52,4.80
2012,12,07,09,53,4.70
2012,12,07,09,54,4.70
2012,12,07,09,55,4.70
2012,12,07,09,56,4.70
2012,12,07,09,57,4.70
2012,12,07,09,58,4.70
2012,12,07,09,59,4.70
2012,12,07,10,00,4.70
2012,12,07,10,01,4.70
2012,12,07,10,02,4.70
2012,12,07,10,03,4.70
2012,12,07,10,04,4.70
2012,12,07,10,05,4.70
2012,12,07,10,06,4.70
2012,12,07,10,07,4.70
2012,12,07,10,08,4.70
2012,12,07,10,09,4.70
2012,12,07,10,10,4.70
2012,12,07,10,11,4.70
2012,12,07,10,12,4.80
2012,12,07,10,13,4.80
2012,12,07,10,14,4.80
2012,12,07,10,15,4.80
2012,12,07,10,16,4.80
2012,12,07,10,17,4.80
2012,12,07,10,18,4.80
2012,12,07,10,19,4.80
2012,12,07,10,20,4.80
2012,12,07,10,21,4.80
2012,12,07,10,22,4.80
2012,12,07,10,23,4.80
2012,12,07,10,24,4.80
2012,12,07,10,25,4.80
2012,12,07,10,26,4.80
2012,12,07,10,27,4.80
2012,12,07,10,28,4.90
2012,12,07,10,29,4.90
2012,12,07,10,30,4.90
2012,12,07,10,31,4.90
2012,12,07,10,32,4.90
2012,12,07,10,33,4.90
2012,12,07,10,34,4.90
2012,12,07,10,35,4.90
2012,12,07,10,36,4.90
2012,12,07,10,37,4.90
2012,12,07,10,38,5.00
2012,12,07,10,39,5.00
2012,12,07,10,40,5.00
2012,12,07,10,41,5.10
2012,12,07,10,42,5.10
2012,12,07,10,43,5.10
2012,12,07,10,44,5.10
2012,12,07,10,45,5.20
2012,12,07,10,46,5.20
2012,12,07,10,47,5.20
2012,12,07,10,48,5.20
2012,12,07,10,49,5.20
2012,12,07,10,50,5.20
2012,12,07,10,51,5.20
2012,12,07,10,52,5.20
2012,12,07,10,53,5.20
2012,12,07,10,54,5.20
2012,12,07,10,55,5.20
2012,12,07,10,56,5.10
2012,12,07,10,57,5.10
2012,12,07,10,58,5.10
2012,12,07,10,59,5.10
2012,12,07,11,00,5.10
2012,12,07,11,01,5.10
2012,12,07,11,02,5.10
2012,12,07,11,03,5.10
2012,12,07,11,04,5.10
2012,12,07,11,05,5.10
2012,12,07,11,06,5.10
2012,12,07,11,07,5.10
2012,12,07,11,08,5.10
2012,12,07,11,09,5.10
2012,12,07,11,10,5.10
2012,12,07,11,11,5.10
2012,12,07,11,12,5.10
2012,12,07,11,13,5.00
2012,12,07,11,14,5.00
2012,12,07,11,15,5.00
2012,12,07,11,16,5.00
2012,12,07,11,17,5.10
2012,12,07,11,18,5.10
2012,12,07,11,19,5.10
2012,12,07,11,20,5.10
2012,12,07,11,21,5.00
2012,12,07,11,22,5.10
2012,12,07,11,23,5.10
2012,12,07,11,24,5.10
2012,12,07,11,25,5.10
2012,12,07,11,26,5.10
2012,12,07,11,27,5.10
2012,12,07,11,28,5.10
2012,12,07,11,29,5.10
2012,12,07,11,30,5.10
2012,12,07,11,31,5.10
2012,12,07,11,32,5.10
2012,12,07,11,33,5.10
2012,12,07,11,34,5.10
2012,12,07,11,35,5.10
2012,12,07,11,36,5.20
2012,12,07,11,37,5.10
2012,12,07,11,38,5.20
2012,12,07,11,39,5.20
2012,12,07,11,40,5.20
2012,12,07,11,41,5.20
2012,12,07,11,42,5.20
2012,12,07,11,43,5.20
2012,12,07,11,44,5.20
2012,12,07,11,45,5.20
2012,12,07,11,46,5.20
2012,12,07,11,47,5.20
2012,12,07,11,48,5.20
2012,12,07,11,49,5.20
2012,12,07,11,50,5.20
2012,12,07,11,51,5.20
2012,12,07,11,52,5.20
2012,12,07,11,53,5.20
2012,12,07,11,54,5.20
2012,12,07,11,55,5.20
2012,12,07,11,56,5.20
2012,12,07,11,57,5.20
2012,12,07,11,58,5.20
2012,12,07,11,59,5.20
2012,12,07,12,00,5.20
2012,12,07,12,01,5.30
2012,12,07,12,02,5.30
2012,12,07,12,03,5.30
2012,12,07,12,04,5.30
2012,12,07,12,05,5.30
2012,12,07,12,06,5.30
2012,12,07,12,07,5.30
2012,12,07,12,08,5.30
2012,12,07,12,09,5.30
2012,12,07,12,10,5.30
2012,12,07,12,11,5.30
2012,12,07,12,12,5.30
2012,12,07,12,13,5.30
2012,12,07,12,14,5.30
2012,12,07,12,15,5.30
2012,12,07,12,16,5.30
2012,12,07,12,17,5.30
2012,12,07,12,18,5.30
2012,12,07,12,19,5.30
2012,12,07,12,20,5.30
2012,12,07,12,21,5.30
2012,12,07,12,22,5.30
2012,12,07,12,23,5.30
2012,12,07,12,24,5.30
2012,12,07,12,25,5.40
2012,12,07,12,26,5.40
2012,12,07,12,27,5.40
2012,12,07,12,28,5.40
2012,12,07,12,29,5.40
2012,12,07,12,30,5.40
2012,12,07,12,31,5.40
2012,12,07,12,32,5.40
2012,12,07,12,33,5.40
2012,12,07,12,34,5.40
2012,12,07,12,35,5.40
2012,12,07,12,36,5.40
2012,12,07,12,37,5.40
2012,12,07,12,38,5.40
2012,12,07,12,39,5.40
2012,12,07,12,40,5.40
2012,12,07,12,41,5.40
2012,12,07,12,42,5.40
2012,12,07,12,43,5.40
2012,12,07,12,44,5.40
2012,12,07,12,45,5.40
2012,12,07,12,46,5.40
2012,12,07,12,47,5.40
2012,12,07,12,48,5.40
2012,12,07,12,49,5.40
2012,12,07,12,50,5.40
2012,12,07,12,51,5.40
2012,12,07,12,52,5.40
2012,12,07,12,53,5.30
2012,12,07,12,54,5.40
2012,12,07,12,55,5.40
2012,12,07,12,56,5.40
2012,12,07,12,57,5.40
2012,12,07,12,58,5.40
2012,12,07,12,59,5.40
2012,12,07,13,00,5.40
2012,12,07,13,01,5.40
2012,12,07,13,02,5.30
2012,12,07,13,03,5.30
2012,12,07,13,04,5.30
2012,12,07,13,05,5.30
2012,12,07,13,06,5.30
2012,12,07,13,07,5.40
2012,12,07,13,08,5.40
2012,12,07,13,09,5.40
2012,12,07,13,10,5.40
2012,12,07,13,11,5.40
2012,12,07,13,12,5.40
2012,12,07,13,13,5.40
2012,12,07,13,14,5.40
2012,12,07,13,15,5.40
2012,12,07,13,16,5.40
2012,12,07,13,17,5.40
2012,12,07,13,18,5.40
2012,12,07,13,19,5.40
2012,12,07,13,20,5.40
2012,12,07,13,21,5.40
2012,12,07,13,22,5.40
2012,12,07,13,23,5.40
2012,12,07,13,24,5.50
2012,12,07,13,25,5.40
2012,12,07,13,26,5.40
2012,12,07,13,27,5.40
2012,12,07,13,28,5.50
2012,12,07,13,29,5.50
2012,12,07,13,30,5.50
2012,12,07,13,31,5.50
2012,12,07,13,32,5.50
2012,12,07,13,33,5.50
2012,12,07,13,34,5.50
2012,12,07,13,35,5.50
2012,12,07,13,36,5.50
2012,12,07,13,37,5.50
2012,12,07,13,38,5.50
2012,12,07,13,39,5.60
2012,12,07,13,40,5.60
2012,12,07,13,41,5.60
2012,12,07,13,42,5.60
2012,12,07,13,43,5.60
2012,12,07,13,44,5.60
2012,12,07,13,45,5.60
2012,12,07,13,46,5.60
2012,12,07,13,47,5.60
2012,12,07,13,48,5.60
2012,12,07,13,49,5.60
2012,12,07,13,50,5.60
2012,12,07,13,51,5.70
2012,12,07,13,52,5.70
2012,12,07,13,53,5.70
2012,12,07,13,54,5.70
2012,12,07,13,55,5.70
2012,12,07,13,56,5.70
2012,12,07,13,57,5.70
2012,12,07,13,58,5.70
2012,12,07,13,59,5.70
2012,12,07,14,00,5.70
2012,12,07,14,01,5.70
2012,12,07,14,02,5.70
2012,12,07,14,03,5.70
2012,12,07,14,04,5.70
2012,12,07,14,05,5.70
2012,12,07,14,06,5.60
2012,12,07,14,07,5.60
2012,12,07,14,08,5.60
2012,12,07,14,09,5.60
2012,12,07,14,10,5.60
2012,12,07,14,11,5.60
2012,12,07,14,12,5.60
2012,12,07,14,13,5.60
2012,12,07,14,14,5.60
2012,12,07,14,15,5.60
2012,12,07,14,16,5.60
2012,12,07,14,17,5.60
2012,12,07,14,18,5.60
2012,12,07,14,19,5.60
2012,12,07,14,20,5.60
2012,12,07,14,21,5.60
2012,12,07,14,22,5.60
2012,12,07,14,23,5.60
2012,12,07,14,24,5.60
2012,12,07,14,25,5.60
2012,12,07,14,26,5.60
2012,12,07,14,27,5.60
2012,12,07,14,28,5.60
2012,12,07,14,29,5.60
2012,12,07,14,30,5.60
2012,12,07,14,31,5.50
2012,12,07,14,32,5.60
2012,12,07,14,33,5.50
2012,12,07,14,34,5.50
2012,12,07,14,35,5.50
2012,12,07,14,36,5.50
2012,12,07,14,37,5.50
2012,12,07,14,38,5.50
2012,12,07,14,39,5.50
2012,12,07,14,40,5.50
2012,12,07,14,41,5.50
2012,12,07,14,42,5.50
2012,12,07,14,43,5.50
2012,12,07,14,44,5.50
2012,12,07,14,45,5.50
2012,12,07,14,46,5.50
2012,12,07,14,47,5.50
2012,12,07,14,48,5.40
2012,12,07,14,49,5.40
2012,12,07,14,50,5.40
2012,12,07,14,51,5.40
2012,12,07,14,52,5.40
2012,12,07,14,53,5.40
2012,12,07,14,54,5.50
2012,12,07,14,55,5.40
2012,12,07,14,56,5.40
2012,12,07,14,57,5.40
2012,12,07,14,58,5.40
2012,12,07,14,59,5.40
2012,12,07,15,00,5.40
2012,12,07,15,01,5.40
2012,12,07,15,02,5.40
2012,12,07,15,03,5.40
2012,12,07,15,04,5.40
2012,12,07,15,05,5.40
2012,12,07,15,06,5.40
2012,12,07,15,07,5.40
2012,12,07,15,08,5.40
2012,12,07,15,09,5.40
2012,12,07,15,10,5.30
2012,12,07,15,11,5.30
2012,12,07,15,12,5.30
2012,12,07,15,13,5.30
2012,12,07,15,14,5.30
2012,12,07,15,15,5.30
2012,12,07,15,16,5.30
2012,12,07,15,17,5.30
2012,12,07,15,18,5.20
2012,12,07,15,19,5.20
2012,12,07,15,20,5.20
2012,12,07,15,21,5.20
2012,12,07,15,22,5.20
2012,12,07,15,23,5.20
2012,12,07,15,24,5.20
2012,12,07,15,25,5.20
2012,12,07,15,26,5.20
2012,12,07,15,27,5.20
2012,12,07,15,28,5.20
2012,12,07,15,29,5.20
2012,12,07,15,30,5.20
2012,12,07,15,31,5.20
2012,12,07,15,32,5.20
2012,12,07,15,33,5.20
2012,12,07,15,34,5.20
2012,12,07,15,35,5.20
2012,12,07,15,36,5.20
2012,12,07,15,37,5.20
2012,12,07,15,38,5.20
2012,12,07,15,39,5.20
2012,12,07,15,40,5.20
2012,12,07,15,41,5.10
2012,12,07,15,42,5.10
2012,12,07,15,43,5.10
2012,12,07,15,44,5.10
2012,12,07,15,45,5.10
2012,12,07,15,46,5.10
2012,12,07,15,47,5.10
2012,12,07,15,48,5.10
2012,12,07,15,49,5.10
2012,12,07,15,50,5.10
2012,12,07,15,51,5.10
2012,12,07,15,52,5.00
2012,12,07,15,53,5.00
2012,12,07,15,54,5.00
2012,12,07,15,55,5.00
2012,12,07,15,56,5.00
2012,12,07,15,57,5.00
2012,12,07,15,58,5.00
2012,12,07,15,59,5.00
2012,12,07,16,00,5.00
2012,12,07,16,01,5.00
2012,12,07,16,02,5.00
2012,12,07,16,03,5.00
2012,12,07,16,04,5.00
2012,12,07,16,05,5.00
2012,12,07,16,06,5.00
2012,12,07,16,07,5.00
2012,12,07,16,08,4.90
2012,12,07,16,09,4.90
2012,12,07,16,10,4.90
2012,12,07,16,11,4.90
2012,12,07,16,12,4.90
2012,12,07,16,13,4.90
2012,12,07,16,14,4.90
2012,12,07,16,15,4.90
2012,12,07,16,16,4.90
2012,12,07,16,17,4.90
2012,12,07,16,18,4.80
2012,12,07,16,19,4.80
2012,12,07,16,20,4.80
2012,12,07,16,21,4.80
2012,12,07,16,22,4.80
2012,12,07,16,23,4.80
2012,12,07,16,24,4.80
2012,12,07,16,25,4.70
2012,12,07,16,26,4.70
2012,12,07,16,27,4.70
2012,12,07,16,28,4.70
2012,12,07,16,29,4.70
2012,12,07,16,30,4.70
2012,12,07,16,31,4.70
2012,12,07,16,32,4.70
2012,12,07,16,33,4.70
2012,12,07,16,34,4.70
2012,12,07,16,35,4.70
2012,12,07,16,36,4.70
2012,12,07,16,37,4.70
2012,12,07,16,38,4.70
2012,12,07,16,39,4.70
2012,12,07,16,40,4.70
2012,12,07,16,41,4.70
2012,12,07,16,42,4.60
2012,12,07,16,43,4.60
2012,12,07,16,44,4.60
2012,12,07,16,45,4.60
2012,12,07,16,46,4.60
2012,12,07,16,47,4.50
2012,12,07,16,48,4.50
2012,12,07,16,49,4.50
2012,12,07,16,50,4.50
2012,12,07,16,51,4.50
2012,12,07,16,52,4.50
2012,12,07,16,53,4.50
2012,12,07,16,54,4.50
2012,12,07,16,55,4.40
2012,12,07,16,56,4.40
2012,12,07,16,57,4.40
2012,12,07,16,58,4.40
2012,12,07,16,59,4.40
2012,12,07,17,00,4.40
2012,12,07,17,01,4.40
2012,12,07,17,02,4.40
2012,12,07,17,03,4.40
2012,12,07,17,04,4.40
2012,12,07,17,05,4.40
2012,12,07,17,06,4.30
2012,12,07,17,07,4.30
2012,12,07,17,08,4.30
2012,12,07,17,09,4.30
2012,12,07,17,10,4.30
2012,12,07,17,11,4.30
2012,12,07,17,12,4.30
2012,12,07,17,13,4.30
2012,12,07,17,14,4.30
2012,12,07,17,15,4.30
2012,12,07,17,16,4.30
2012,12,07,17,17,4.30
2012,12,07,17,18,4.30
2012,12,07,17,19,4.30
2012,12,07,17,20,4.30
2012,12,07,17,21,4.40
2012,12,07,17,22,4.40
2012,12,07,17,23,4.40
2012,12,07,17,24,4.40
2012,12,07,17,25,4.40
2012,12,07,17,26,4.40
2012,12,07,17,27,4.40
2012,12,07,17,28,4.30
2012,12,07,17,29,4.30
2012,12,07,17,30,4.30
2012,12,07,17,31,4.30
2012,12,07,17,32,4.30
2012,12,07,17,33,4.30
2012,12,07,17,34,4.30
2012,12,07,17,35,4.30
2012,12,07,17,36,4.30
2012,12,07,17,37,4.40
2012,12,07,17,38,4.40
2012,12,07,17,39,4.40
2012,12,07,17,40,4.40
2012,12,07,17,41,4.50
2012,12,07,17,42,4.50
2012,12,07,17,43,4.50
2012,12,07,17,44,4.60
2012,12,07,17,45,4.60
2012,12,07,17,46,4.60
2012,12,07,17,47,4.70
2012,12,07,17,48,4.70
2012,12,07,17,49,4.70
2012,12,07,17,50,4.70
2012,12,07,17,51,4.70
2012,12,07,17,52,4.70
2012,12,07,17,53,4.70
2012,12,07,17,54,4.70
2012,12,07,17,55,4.80
2012,12,07,17,56,4.80
2012,12,07,17,57,4.80
2012,12,07,17,58,4.80
2012,12,07,17,59,4.80
2012,12,07,18,00,4.80
2012,12,07,18,01,4.80
2012,12,07,18,02,4.80
2012,12,07,18,03,4.80
2012,12,07,18,04,4.80
2012,12,07,18,05,4.80
2012,12,07,18,06,4.80